STARLINK-31745, 60329

Orbit data source: Space-Track

STARLINK-31745, 60329 is a payload satellite owned by SpaceX/Seattle (US) in LEO that was launched on Fri, 02 Aug 2024 UTC via an FALCON 9 launch vehicle from the Air Force Eastern Test Range (AFETR). Payload-class satellites include a variety of spacecraft equipped with specific instruments for various scientific and technological missions. These include communications satellites like Starlink; space stations such as the ISS; scientific satellites like the Hubble; Earth observation satellites from companies like Planet Labs, Umbra, and HawkEye 360; GPS; miniature CubeSats for education and research; and military/defense satellites.

Loading next visibility...
Identifier
60329, 2024-136A
Orbit
LEO
Country
Flag of USUS
Related business
Manufacturer
SpaceX/Seattle
Mission
Operational Commercial Communications
Bus & Motor
STARLINK V2M, Unknown motor
Mass
730 kg wet, ~700 kg dry
Launch date (UTC)
2024-08-02 (2 years ago)
Launch vehicle
FALCON 9
Launch site
Air Force Eastern Test Range (AFETR)
Object type
Payload
Rocket body
Debris
Shape & HBR
Box + 2 Pan, 17.7 m
Radar Cross Section
33.884 m², Large (>1 m²)

Expand to show TLE details & history
Last TLE update: 12 hours ago

TLE from 12 hours ago
0 STARLINK-31745
1 60329U 24136A   26171.33218419 -.00001633  00000-0 -40836-4 0  9994
2 60329  53.1632 318.6186 0001659 100.6217 259.4971 15.31708875106596
Epoch: 2026-06-20T07:58Z
TLE epoch observation values (Epoch: 2026-06-20T07:58:20.714Z)
Latitude
-0.00003°
Longitude
-69.51606°
Altitude
471.821 km
Speed
7.631 km/s
True Right ascension
21h 14m 28s
True Declination
0° 00' 00"
Sunlit
Object was in full shadow at epoch
Visualization orbit readout
Latitude
Unknown
Longitude
Unknown
Altitude
Unknown
Speed
Unknown
Apparent Right ascension
Unknown
Apparent Declination
Unknown
Sunlit
N/A
Visualization observer readout
Local Sidereal Time
07:24:04
Azimuth
Unknown
Elevation
Unknown
Doppler factor
Unknown
Orbital elements
Apogee altitude
472.106 km
Perigee altitude
469.833 km
Semi-major axis
6,849.107 km
Eccentricity
0.00017
Inclination
53.1632°
RAAN
318.6186°
Arg. of periapsis
100.6217°
True anomaly
259.47841°
Mean anomaly
259.4971°
Eccentric anomaly
259.48775°
Mean motion
3.82906 °/min
Orbital period
94.02 mins
BSTAR
-0.000040836
Loading maneuver chart data...
Computing Atmospheric mass density...
Loading historical data...
Loading historical data...
Loading historical data...
Loading historical data...
Loading historical data...
Loading historical data...
Loading historical data...

Documentation

Showing up to 5 results
|